Hourly Data Report for July 19, 2021

IQALUIT CLIMATE
NUNAVUT
Current Station Operator: ECCC - MSC

63°44'50.000" N
68°32'40.000" W
33.50 m
2402592
71321
XFB

Download Data

Hourly Data (July 2021)
Hourly Data Report for July 19, 2021
TIME
LST
Temp Definition
°C
Dew Point Definition
°C
Rel Hum Definition
%
Precip. Amount Definition
mm

Wind Dir Definition
10's deg

Wind Spd Definition
km/h
Visibility Definition
km
Stn Press Definition
kPa
Hmdx Definition


Wind Chill Definition


Weather Definition


00:00 5.8 1.8 76 0.0 23 10   99.85     LegendNANA
01:00 5.5 1.4 75 0.0 24 19   99.83     LegendNANA
02:00 5.4 1.7 77 0.0 24 8   99.83     LegendNANA
03:00 5.4 1.6 76 0.0 21 4   99.82     LegendNANA
04:00 5.2 2.8 84 0.0 14 7   99.81     LegendNANA
05:00 5.2 2.9 85 0.0 15 8   99.81     LegendNANA
06:00 5.6 2.6 81 0.0 15 9   99.84     LegendNANA
07:00 6.2 2.4 77 0.0 17 11   99.84     LegendNANA
08:00 6.1 2.2 76 0.0 20 9   99.86     LegendNANA
09:00 7.2 2.2 71 0.0 21 9   99.87     LegendNANA
10:00 8.1 2.6 68 0.0 21 11   99.87     LegendNANA
11:00 8.7 2.8 66 0.0 21 9   99.86     LegendNANA
12:00 9.1 3.6 69 0.0 20 8   99.86     LegendNANA
13:00 9.5 2.1 60 0.0 21 9   99.87     LegendNANA
14:00 9.0 2.6 64 0.0 19 15   99.93     LegendNANA
15:00 8.9 2.8 65 0.0 21 13   99.96     LegendNANA
16:00 9.1 2.7 64 0.0 17 12   99.97     LegendNANA
17:00 8.7 3.4 69 0.0 18 13   100.00     LegendNANA
18:00 8.2 3.4 72 0.0 17 9   100.05     LegendNANA
19:00 7.5 3.1 74 0.0 14 7   100.07     LegendNANA
20:00 7.6 3.1 73 0.0 15 7   100.10     LegendNANA
21:00 7.7 3.3 74 0.0 13 4   100.12     LegendNANA
22:00 7.7 3.1 73 0.0 13 5   100.13     LegendNANA
23:00 7.8 3.7 75 0.0 13 5   100.15     LegendNANA

Notes on Data Quality.

Legend

  • E = Estimated
  • M = Missing
  • NA = Not Available*
  • [empty] = Indicates an unobserved value
Date modified: